Participated 4 times
Between 2010 and 2017
Grega Bole, Slovenia
Tour de France 2026 starts from Barcelona, Spain in

Stats and Facts from
Tour de France.

2026   2025   2024   2023  2022  2021  2020  2019   2018  2017   2016   2015  2014  2013   2012   2011  2010   2009   2008   2007   2006   2005   2004   2003   2002   2001   2000   1999   1998   1997  1996   1995   1994   1993   1992  1991   1990   1989   1988   1987   1986   1985   1984   1983  1982  1981   1980   1979  1978  1977   1976  1975  1974  1973   1972   1971   1970  1969   1968   1967   1966   1965  1964  1963   1962   1961   1960   1959   1958   1957  1956   1955   1954   1953   1952  1951  1950  1949   1948  1947  1939   1938   1937   1936   1935   1934   1933  1932   1931   1930  1929   1928   1927   1926  1925  1924  1923   1922   1921   1920   1919  1914   1913   1912   1911   1910  1909   1908   1907   1906  1905  1904   1903 

Tourstats
Sitemap

After stage 21 - 2025:
 16451 starters.
  5463 different riders.
  689 teams.
  2398 stages.
  470 restdays.
  466506.50 km.
  5925 abandoned riders.

Click map for 1991 route.
Facts from Tour de France 1991
  |   Stages.  |   Stage winners.  |   Days in jerseys.  |   Teams.  |   All riders.  |   All riders by age.  |   All riders from.  |  

  |   Rookies.  |   Withdrawls.  |   Average speed.  |   GC.  |   Polka  |   Green  |   White  |   Summits. (In tour)  |   Miscellaneous.  |  

Stage 2 on July 7th. 1991
Pick a stage:  Pro  1  2  3  4  5  6  7  8  9  10  11  12  13  14  15  16  17  18  19  20  21  22  

After stage 2:    Rolf Sørensen  
  BronChassieu | Dist: 36.50km. | Winner: Sébastien Rosseler

Podium

Average speed for all riders in stage:  51,348 km./hr.

1
 Moreno Argentin  Ariostea00h 41' 23"=52,920  km/h

2
 Davide Cassani  Ariostea00h 41' 23"=52,920  km/h

3
 Bruno Cenghialta  Ariostea00h 41' 23"=52,920  km/h

4  Roberto Conti  Ariostea00h 41' 23"=52,920  km/h

5  Alberto Elli  Ariostea00h 41' 23"=52,920  km/h

6  Rolf Gölz  Ariostea00h 41' 23"=52,920  km/h

7  Massimiliano Lelli  Ariostea00h 41' 23"=52,920  km/h

8  Marco Lietti  Ariostea00h 41' 23"=52,920  km/h

9  Rolf Sørensen  Ariostea00h 41' 23"=52,920  km/h

10  Laurent Fignon  Castorama00h 41' 31"+  00:00:08 =52,750  km/h

11  Dominique Arnould  Castorama00h 41' 31"+  00:00:08 =52,750  km/h

12  Jean-Claude Bagot  Castorama00h 41' 31"+  00:00:08 =52,750  km/h

13  Christophe Lavainne  Castorama00h 41' 31"+  00:00:08 =52,750  km/h

14  Luc Leblanc  Castorama00h 41' 31"+  00:00:08 =52,750  km/h

15  Thierry Marie  Castorama00h 41' 31"+  00:00:08 =52,750  km/h

16  Bjarne Riis  Castorama00h 41' 31"+  00:00:08 =52,750  km/h

17  Pascal Simon  Castorama00h 41' 31"+  00:00:08 =52,750  km/h

18  Frédéric Vichot  Castorama00h 41' 31"+  00:00:08 =52,750  km/h

19  Rudy Dhaenens  Panasonic-Sportlife00h 41' 58"+  00:00:35 =52,184  km/h

20  Viatcheslav Ekimov  Panasonic-Sportlife00h 41' 58"+  00:00:35 =52,184  km/h

21  Maurizio Fondriest  Panasonic-Sportlife00h 41' 58"+  00:00:35 =52,184  km/h

22  Olaf Ludwig  Panasonic-Sportlife00h 41' 58"+  00:00:35 =52,184  km/h

23  Guy Nulens  Panasonic-Sportlife00h 41' 58"+  00:00:35 =52,184  km/h

24  Marc Sergeant  Panasonic-Sportlife00h 41' 58"+  00:00:35 =52,184  km/h

25  Eric Van Lancker  Panasonic-Sportlife00h 41' 58"+  00:00:35 =52,184  km/h

26  Marc van Orsouw  Panasonic-Sportlife00h 41' 58"+  00:00:35 =52,184  km/h

27  Dimitri Zhdanov  Panasonic-Sportlife00h 41' 58"+  00:00:35 =52,184  km/h

28  Erik Breukink  PDM-Concorde00h 42' 03"+  00:00:40 =52,081  km/h

29  Raúl Alcalá  PDM-Concorde00h 42' 03"+  00:00:40 =52,081  km/h

30  Falk Boden  PDM-Concorde00h 42' 03"+  00:00:40 =52,081  km/h

31  Martin Earley  PDM-Concorde00h 42' 03"+  00:00:40 =52,081  km/h

32  Sean Kelly  PDM-Concorde00h 42' 03"+  00:00:40 =52,081  km/h

33  Uwe Raab  PDM-Concorde00h 42' 03"+  00:00:40 =52,081  km/h

34  Jos Van Aert  PDM-Concorde00h 42' 03"+  00:00:40 =52,081  km/h

35  Jean-Paul van Poppel  PDM-Concorde00h 42' 03"+  00:00:40 =52,081  km/h

36  Nico Verhoeven  PDM-Concorde00h 42' 03"+  00:00:40 =52,081  km/h

37  Pello Ruiz Cabestany  Clas-Cajastur00h 42' 08"+  00:00:45 =51,978  km/h

38  Manuel Dominguez  Clas-Cajastur00h 42' 08"+  00:00:45 =51,978  km/h

39  Javier Duch  Clas-Cajastur00h 42' 08"+  00:00:45 =51,978  km/h

40  Nico  Emonds  Clas-Cajastur00h 42' 08"+  00:00:45 =51,978  km/h

41  Francisco Espinosa  Clas-Cajastur00h 42' 08"+  00:00:45 =51,978  km/h

42  Iñaki Gastón  Clas-Cajastur00h 42' 08"+  00:00:45 =51,978  km/h

43  Alberto Leanizbarrutia  Clas-Cajastur00h 42' 08"+  00:00:45 =51,978  km/h

44  Francisco Mauleón  Clas-Cajastur00h 42' 08"+  00:00:45 =51,978  km/h

45  José-Manuel Oliveira  Clas-Cajastur00h 42' 08"+  00:00:45 =51,978  km/h

46  Steven Rooks  Buckler00h 42' 12"+  00:00:49 =51,896  km/h

47  Gerrit De Vries  Buckler00h 42' 12"+  00:00:49 =51,896  km/h

48  Frans Maassen  Buckler00h 42' 12"+  00:00:49 =51,896  km/h

49  Jelle Nijdam  Buckler00h 42' 12"+  00:00:49 =51,896  km/h

50  Toine  Poels  Buckler00h 42' 12"+  00:00:49 =51,896  km/h

51  Gerrit Solleveld  Buckler00h 42' 12"+  00:00:49 =51,896  km/h

52  Edwig Van Hooydonck  Buckler00h 42' 12"+  00:00:49 =51,896  km/h

53  Eric Vanderaerden  Buckler00h 42' 12"+  00:00:49 =51,896  km/h

54  Wiebren Veenstra  Buckler00h 42' 12"+  00:00:49 =51,896  km/h

55  Greg LeMond  Z00h 42' 12"+  00:00:49 =51,896  km/h

56  Éric Boyer  Z00h 42' 12"+  00:00:49 =51,896  km/h

57  Philippe Casado  Z00h 42' 12"+  00:00:49 =51,896  km/h

58  Bruno Cornillet  Z00h 42' 12"+  00:00:49 =51,896  km/h

59  Gilbert Duclos-Lassalle  Z00h 42' 12"+  00:00:49 =51,896  km/h

60  Atle Kvå lsvoll  Z00h 42' 12"+  00:00:49 =51,896  km/h

61  François Lemarchand  Z00h 42' 12"+  00:00:49 =51,896  km/h

62  Robert Millar  Z00h 42' 12"+  00:00:49 =51,896  km/h

63  Jerôme Simon  Z00h 42' 12"+  00:00:49 =51,896  km/h

64  Andy Hampsten  Motorola00h 42' 22"+  00:00:59 =51,692  km/h

65  Phil Anderson  Motorola00h 42' 22"+  00:00:59 =51,692  km/h

66  Steve Bauer  Motorola00h 42' 22"+  00:00:59 =51,692  km/h

67  Andrew Bishop  Motorola00h 42' 22"+  00:00:59 =51,692  km/h

68  Michael Carter  Motorola00h 42' 22"+  00:00:59 =51,692  km/h

69  Ron Kiefel  Motorola00h 42' 22"+  00:00:59 =51,692  km/h

70  Dag Otto Lauritzen  Motorola00h 42' 22"+  00:00:59 =51,692  km/h

71  Sean Yates  Motorola00h 42' 22"+  00:00:59 =51,692  km/h

72  Urs Zimmermann  Motorola00h 42' 22"+  00:00:59 =51,692  km/h

73  Gianni Bugno  Gatorade-Chateau d'Ax00h 42' 22"+  00:00:59 =51,692  km/h

74  Guiseppe Calcaterra  Gatorade-Chateau d'Ax00h 42' 22"+  00:00:59 =51,692  km/h

75  Marco Giovannetti  Gatorade-Chateau d'Ax00h 42' 22"+  00:00:59 =51,692  km/h

76  Roberto Gusmeroli  Gatorade-Chateau d'Ax00h 42' 22"+  00:00:59 =51,692  km/h

77  Camillo Passera  Gatorade-Chateau d'Ax00h 42' 22"+  00:00:59 =51,692  km/h

78  Mauro-Antonio Santaromita  Gatorade-Chateau d'Ax00h 42' 22"+  00:00:59 =51,692  km/h

79  Jan Schur  Gatorade-Chateau d'Ax00h 42' 22"+  00:00:59 =51,692  km/h

80  Valerio Tebaldi  Gatorade-Chateau d'Ax00h 42' 22"+  00:00:59 =51,692  km/h

81  Stefano Zanatta  Gatorade-Chateau d'Ax00h 42' 22"+  00:00:59 =51,692  km/h

82  Pedro Delgado  Banesto00h 42' 28"+  00:01:05 =51,570  km/h

83  Marino Alonso  Banesto00h 42' 28"+  00:01:05 =51,570  km/h

84  Dominique Arnaud  Banesto00h 42' 28"+  00:01:05 =51,570  km/h

85  Jean-François Bernard  Banesto00h 42' 28"+  00:01:05 =51,570  km/h

86  Miguel Indurain  Banesto00h 42' 28"+  00:01:05 =51,570  km/h

87  Javier Lukin  Banesto00h 42' 28"+  00:01:05 =51,570  km/h

88  Fabrice Philipot  Banesto00h 42' 28"+  00:01:05 =51,570  km/h

89  Jesus Rodriguez Magro  Banesto00h 42' 28"+  00:01:05 =51,570  km/h

90  Abelardo Rondón  Banesto00h 42' 28"+  00:01:05 =51,570  km/h

91  Fabio Parra  Amaya Seguros00h 42' 29"+  00:01:06 =51,550  km/h

92  Patrice Esnault  Amaya Seguros00h 42' 29"+  00:01:06 =51,550  km/h

93  Enrique Guerrikagoitia  Amaya Seguros00h 42' 29"+  00:01:06 =51,550  km/h

94  Roland Le Clerc  Amaya Seguros00h 42' 29"+  00:01:06 =51,550  km/h

95  Jesús Montoya  Amaya Seguros00h 42' 29"+  00:01:06 =51,550  km/h

96  Javier Murguialday  Amaya Seguros00h 42' 29"+  00:01:06 =51,550  km/h

97  Per Pedersen  Amaya Seguros00h 42' 29"+  00:01:06 =51,550  km/h

98  Ronan Pensec  Amaya Seguros00h 42' 29"+  00:01:06 =51,550  km/h

99  Fernando Quevedo  Amaya Seguros00h 42' 29"+  00:01:06 =51,550  km/h

100  Claudio Chiappucci  Carrera Jeans00h 42' 32"+  00:01:09 =51,489  km/h

101  Djamolidine Abduzhaparov  Carrera Jeans00h 42' 32"+  00:01:09 =51,489  km/h

102  Guido Bontempi  Carrera Jeans00h 42' 32"+  00:01:09 =51,489  km/h

103  Alessandro Giannelli  Carrera Jeans00h 42' 32"+  00:01:09 =51,489  km/h

104  Erich Mächler  Carrera Jeans00h 42' 32"+  00:01:09 =51,489  km/h

105  Jure Pavlič  Carrera Jeans00h 42' 32"+  00:01:09 =51,489  km/h

106  Giancarlo Perini  Carrera Jeans00h 42' 32"+  00:01:09 =51,489  km/h

107  Vladimir Pulnikov  Carrera Jeans00h 42' 32"+  00:01:09 =51,489  km/h

108  Enrico Zaina  Carrera Jeans00h 42' 32"+  00:01:09 =51,489  km/h

109  Charly Mottet  R.M.O.-Mavic-Liberia00h 42' 37"+  00:01:14 =51,388  km/h

110  Éric Caritoux  R.M.O.-Mavic-Liberia00h 42' 37"+  00:01:14 =51,388  km/h

111  Thierry Claveyrolat  R.M.O.-Mavic-Liberia00h 42' 37"+  00:01:14 =51,388  km/h

112  Thierry Laurent  R.M.O.-Mavic-Liberia00h 42' 37"+  00:01:14 =51,388  km/h

113  Pascal Lino  R.M.O.-Mavic-Liberia00h 42' 37"+  00:01:14 =51,388  km/h

114  Marc Madiot  R.M.O.-Mavic-Liberia00h 42' 37"+  00:01:14 =51,388  km/h

115  Yvon Madiot  R.M.O.-Mavic-Liberia00h 42' 37"+  00:01:14 =51,388  km/h

116  Mauro Ribeiro  R.M.O.-Mavic-Liberia00h 42' 37"+  00:01:14 =51,388  km/h

117  Michel Vermote  R.M.O.-Mavic-Liberia00h 42' 37"+  00:01:14 =51,388  km/h

118  Johan Bruyneel  Lotto-Superclub-MBK00h 42' 43"+  00:01:20 =51,268  km/h

119  Peter De Clercq  Lotto-Superclub-MBK00h 42' 43"+  00:01:20 =51,268  km/h

120  Sammie Moreels  Lotto-Superclub-MBK00h 42' 43"+  00:01:20 =51,268  km/h

121  Johan Museeuw  Lotto-Superclub-MBK00h 42' 43"+  00:01:20 =51,268  km/h

122  Jan Nevens  Lotto-Superclub-MBK00h 42' 43"+  00:01:20 =51,268  km/h

123  Hendrik Redant  Lotto-Superclub-MBK00h 42' 43"+  00:01:20 =51,268  km/h

124  Frank Van Den Abeele  Lotto-Superclub-MBK00h 42' 43"+  00:01:20 =51,268  km/h

125  Rik  Van Slycke  Lotto-Superclub-MBK00h 42' 43"+  00:01:20 =51,268  km/h

126  Patrick Verschueren  Lotto-Superclub-MBK00h 42' 43"+  00:01:20 =51,268  km/h

127  Thomas Wegmüller  Weinmann-Eddy Merckx00h 42' 47"+  00:01:24 =51,188  km/h

128  Alfred Achermann  Weinmann-Eddy Merckx00h 42' 47"+  00:01:24 =51,188  km/h

129  Carlo Bomans  Weinmann-Eddy Merckx00h 42' 47"+  00:01:24 =51,188  km/h

130  Michel Dernies  Weinmann-Eddy Merckx00h 42' 47"+  00:01:24 =51,188  km/h

131  Jan Goessens  Weinmann-Eddy Merckx00h 42' 47"+  00:01:24 =51,188  km/h

132  Rolf Järmann  Weinmann-Eddy Merckx00h 42' 47"+  00:01:24 =51,188  km/h

133  Werner Stutz  Weinmann-Eddy Merckx00h 42' 47"+  00:01:24 =51,188  km/h

134  Rudy Verdonck  Weinmann-Eddy Merckx00h 42' 47"+  00:01:24 =51,188  km/h

135  Ludwig Willems  Weinmann-Eddy Merckx00h 42' 47"+  00:01:24 =51,188  km/h

136  Uwe Ampler  Histor-Sigma00h 42' 57"+  00:01:34 =50,990  km/h

137  Etienne De Wilde  Histor-Sigma00h 42' 57"+  00:01:34 =50,990  km/h

138  Brian Holm  Histor-Sigma00h 42' 57"+  00:01:34 =50,990  km/h

139  Andreas Kappes  Histor-Sigma00h 42' 57"+  00:01:34 =50,990  km/h

140  Søren Lilholt  Histor-Sigma00h 42' 57"+  00:01:34 =50,990  km/h

141  Wilfried Peeters  Histor-Sigma00h 42' 57"+  00:01:34 =50,990  km/h

142  Remig Stumpf  Histor-Sigma00h 42' 57"+  00:01:34 =50,990  km/h

143  Benjamin Van Itterbeeck  Histor-Sigma00h 42' 57"+  00:01:34 =50,990  km/h

144  Didier Virvaleix  Histor-Sigma00h 42' 57"+  00:01:34 =50,990  km/h

145  Gilles Delion  Helvetia00h 43' 09"+  00:01:46 =50,753  km/h

146  Serge Demierre  Helvetia00h 43' 09"+  00:01:46 =50,753  km/h

147  Mauro Gianetti  Helvetia00h 43' 09"+  00:01:46 =50,753  km/h

148  Dominik Krieger  Helvetia00h 43' 09"+  00:01:46 =50,753  km/h

149  Henri Manders  Helvetia00h 43' 09"+  00:01:46 =50,753  km/h

150  Pascal Richard  Helvetia00h 43' 09"+  00:01:46 =50,753  km/h

151  Gérard Rué  Helvetia00h 43' 09"+  00:01:46 =50,753  km/h

152  Peter Stevenhaagen  Helvetia00h 43' 09"+  00:01:46 =50,753  km/h

153  Guido Winterberg  Helvetia00h 43' 09"+  00:01:46 =50,753  km/h

154  Marino Lejarreta  O.N.C.E.00h 43' 20"+  00:01:57 =50,538  km/h

155  Eduardo Chozas  O.N.C.E.00h 43' 20"+  00:01:57 =50,538  km/h

156  Herminio Diaz Zabala  O.N.C.E.00h 43' 20"+  00:01:57 =50,538  km/h

157  Anselmo Fuerte  O.N.C.E.00h 43' 20"+  00:01:57 =50,538  km/h

158  Stephen Hodge  O.N.C.E.00h 43' 20"+  00:01:57 =50,538  km/h

159  Miguel Angel Martinez  O.N.C.E.00h 43' 20"+  00:01:57 =50,538  km/h

160  Melchor Mauri  O.N.C.E.00h 43' 20"+  00:01:57 =50,538  km/h

161  José Luis Villanueva  O.N.C.E.00h 43' 20"+  00:01:57 =50,538  km/h

162  Johnny Weltz  O.N.C.E.00h 43' 20"+  00:01:57 =50,538  km/h

163  Laurent Jalabert  Toshiba00h 43' 24"+  00:02:01 =50,461  km/h

164  Henri Abadie  Toshiba00h 43' 24"+  00:02:01 =50,461  km/h

165  Thierry Bourguignon  Toshiba00h 43' 24"+  00:02:01 =50,461  km/h

166  Christian Chaubet  Toshiba00h 43' 24"+  00:02:01 =50,461  km/h

167  Martial Gayant  Toshiba00h 43' 24"+  00:02:01 =50,461  km/h

168  Pascal Lance  Toshiba00h 43' 24"+  00:02:01 =50,461  km/h

169  Philippe Louviot  Toshiba00h 43' 24"+  00:02:01 =50,461  km/h

170  Olaf Lurvik  Toshiba00h 43' 24"+  00:02:01 =50,461  km/h

171  Denis Roux  Toshiba00h 43' 24"+  00:02:01 =50,461  km/h

172  Gert-Jan Theunisse  TVM-Sanyo00h 43' 33"+  00:02:10 =50,287  km/h

173  Thomas Barth  TVM-Sanyo00h 43' 33"+  00:02:10 =50,287  km/h

174  Rob Harmeling  TVM-Sanyo00h 43' 33"+  00:02:10 =50,287  km/h

175  Vasily Zhdanov  TVM-Sanyo00h 43' 33"+  00:02:10 =50,287  km/h

176  Dimitri Konychev  TVM-Sanyo00h 43' 33"+  00:02:10 =50,287  km/h

177  Eddy Schurer  TVM-Sanyo00h 43' 33"+  00:02:10 =50,287  km/h

178  Jan Siemons  TVM-Sanyo00h 43' 33"+  00:02:10 =50,287  km/h

179  Jesper Skibby  TVM-Sanyo00h 43' 33"+  00:02:10 =50,287  km/h

180  Sergei Uslamin  TVM-Sanyo00h 43' 33"+  00:02:10 =50,287  km/h

181  Luis Herrera  Ryalcao-Postobon00h 43' 51"+  00:02:28 =49,943  km/h

182  Alberto Camargo  Ryalcao-Postobon00h 43' 51"+  00:02:28 =49,943  km/h

183  Henry Cárdenas  Ryalcao-Postobon00h 43' 51"+  00:02:28 =49,943  km/h

184  Arsenio Chaparro  Ryalcao-Postobon00h 43' 51"+  00:02:28 =49,943  km/h

185  Carlos Jaramillo  Ryalcao-Postobon00h 43' 51"+  00:02:28 =49,943  km/h

186  Álvaro Mejía  Ryalcao-Postobon00h 43' 51"+  00:02:28 =49,943  km/h

187  Gerardo Moncada  Ryalcao-Postobon00h 43' 51"+  00:02:28 =49,943  km/h

188  Reynel Montoya  Ryalcao-Postobon00h 43' 51"+  00:02:28 =49,943  km/h

189  Óscar Vargas  Ryalcao-Postobon00h 43' 51"+  00:02:28 =49,943  km/h

190  John Carlsen  Tonton Tapis-Corona00h 44' 29"+  00:03:06 =49,232  km/h

191  Jean-Claude Colotti  Tonton Tapis-Corona00h 44' 29"+  00:03:06 =49,232  km/h

192  Dirk De Wolf  Tonton Tapis-Corona00h 44' 29"+  00:03:06 =49,232  km/h

193  Patrick Jacobs  Tonton Tapis-Corona00h 44' 29"+  00:03:06 =49,232  km/h

194  Francis Moreau  Tonton Tapis-Corona00h 44' 29"+  00:03:06 =49,232  km/h

195  Atle Pedersen  Tonton Tapis-Corona00h 44' 29"+  00:03:06 =49,232  km/h

196  Laurent Pillon  Tonton Tapis-Corona00h 44' 29"+  00:03:06 =49,232  km/h

197  Laurence Roche  Tonton Tapis-Corona00h 44' 29"+  00:03:06 =49,232  km/h


Withdrawls: 1
 RiderTeamReason
201   Stephen Roche Tonton Tapis-CoronaExceeded time limit
Todays birthdays.

1888 • Giuseppe Contesini
1911 • Edmond Pages
1935 • Eddy Pauwels
1940 • Julien Haelterman
1958 • Luc Colijn
1962 • Jean-François Bernard
1984 • Yann Huguet
1993 • Owain Doull

 

Optimized for Chrome - Edge
and Opera browsers.